Location: Follega
(52.8850°N, 5.7362°E)
Time: 11:01:54
(UTC+00:00)

CARTOSAT-1 - Pass Details

Date: 07 October 2020
Orbit: 616 x 619 km, 97.8° (Epoch: 20 October)

Event Time Altitude Azimuth Distance (km) Brightness Sun altitude
Exits shadow 19:20:38 12° 32° (NNE) 1,875 5.9 -21.9°
Drops below altitude 10° 19:21:17 10° 24° (NNE) 1,993 6.1 -22.0°
Sets 19:24:26 0° 359° (N) 2,903 7.3 -22.4°
